User: anonymous   Login
Location: Asheville, NC
(35.6000°N, 82.5500°W)
Time: 18:37:24
(UTC-05:00)
Language:

XW-2F - Orbit

View from above orbital plane
View from above orbital plane
View from above satellite
View from above satellite

Ground track
Ground track

The orbit data is extracted from the following two-line orbital elements,

1 40910U 15049M   18318.26903227  .00001312  00000-0  69965-4 0  9991
2 40910  97.4603 320.3335 0013381 217.5835 267.0814 15.16853471174204
Epoch (UTC): 14 November 2018 06:27:24
Eccentricity: 0.0013381
inclination: 97.4603°
perigee height: 506 km
apogee height: 524 km
right ascension of ascending node: 320.3335°
argument of perigee: 217.5835°
revolutions per day: 15.16853471
mean anomaly at epoch: 267.0814°
orbit number at epoch: 17420

The dashed part of the orbit path shows where the satellite is in the earth's shadow,  

DLR